This demonstration page uses our WeatherBlox Daily Observations layout. Learn more.

36.17497, -115.13722

Hourly Observations for January 25, 2018

Temp ( °F °C ) Dew Point ( °F °C ) Humidity (%) Winds ( mph kmh ) Pressure ( in mb ) Visibility ( mi km ) Precip ( " mm )
12:53 am 00:53 Clear 42 5.6 26 -3.3 53 53 W 3 6 30.04 1017 10 16.0934 0 0
1:53 am 01:53 Clear 41 5 26 -3.3 55 55 Calm 30.03 1017 10 16.0934 0 0
2:53 am 02:53 Clear 39 3.9 26 -3.3 60 60 NNW 3 6 30.01 1016 10 16.0934 0 0
3:53 am 03:53 Clear 38 3.3 25 -3.9 60 60 NNW 3 6 29.99 1016 10 16.0934 0 0
4:53 am 04:53 Clear 41 5 24 -4.4 51 51 ENE 5 7 29.97 1015 10 16.0934 0 0
5:53 am 05:53 Clear 40 4.4 23 -5 51 51 Calm 29.96 1015 10 16.0934 0 0
6:53 am 06:53 Sunny 39 3.9 23 -5 53 53 Calm 29.96 1014 10 16.0934 0 0
7:53 am 07:53 Sunny 45 7.2 22 -5.6 40 40 NE 12 19 29.95 1014 10 16.0934 0 0
8:53 am 08:53 Sunny 51 10.6 20 -6.7 29 29 ENE 9 15 29.93 1014 10 16.0934 0 0
9:53 am 09:53 Sunny 56 13.3 16 -8.9 21 21 NE 5 7 29.95 1014 10 16.0934 0 0
10:53 am 10:53 Sunny 61 16.1 16 -8.9 17 17 E 5 7 29.93 1014 10 16.0934 0 0
11:53 am 11:53 Sunny 64 17.8 18 -7.8 17 17 WSW 15 24 29.9 1013 10 16.0934 0 0
12:53 pm 12:53 Sunny 64 17.8 19 -7.2 18 18 W 22 35 29.87 1011 10 16.0934 0 0
1:53 pm 13:53 Sunny 63 17.2 20 -6.7 19 19 WSW 26 43 29.84 1010 10 16.0934 0 0
2:53 pm 14:53 Sunny 62 16.7 23 -5 22 22 W 22 35 29.85 1011 10 16.0934 0 0
3:53 pm 15:53 Sunny 61 16.1 22 -5.6 22 22 W 17 28 29.88 1012 10 16.0934 0 0
4:53 pm 16:53 Sunny 59 15 21 -6.1 23 23 WSW 14 22 29.9 1012 10 16.0934 0 0
5:53 pm 17:53 Mostly Clear 57 13.9 23 -5 27 27 WSW 14 22 29.92 1013 10 16.0934 0 0
6:26 pm 18:26 Partly Cloudy 56 13.3 26 -3.3 32 32 NNW 23 37 29.85 1011 10 16.0934 0 0
6:53 pm 18:53 Clear 54 12.2 26 -3.3 34 34 NNW 23 37 29.96 1015 10 16.0934 0 0
7:53 pm 19:53 Clear 52 11.1 31 -0.6 45 45 NW 18 30 29.98 1015 10 16.0934 0 0
8:53 pm 20:53 Cloudy 53 11.7 23 -5 31 31 NW 13 20 30 1016 10 16.0934 0 0
9:53 pm 21:53 Mostly Cloudy 53 11.7 18 -7.8 25 25 NW 10 17 30.02 1017 10 16.0934 0 0
10:53 pm 22:53 Cloudy 51 10.6 21 -6.1 31 31 ENE 6 9 30.06 1018 10 16.0934 0 0
11:53 pm 23:53 Mostly Clear 51 10.6 15 -9.4 24 24 NNE 14 22 30.06 1018 10 16.0934 0 0

Powered by AerisWeather